Back to catalog

SL-14 DEB

AlivePO
NORAD 27804·DEBRIS·🇷🇺 Russia

Launched Sep 28, 1991 from Plesetsk Cosmodrome

Loading…

Next Passes (next 24 hours)

TLE

FreshSource: Space-Track

Epoch: Sep 14, 2026, 03:34 UTC

1 27804U 91068AR  26257.14923321  .00006468  00000-0  21567-1 0  9998
2 27804  82.6415 325.7112 0346986 317.4456  65.4725 12.81448743629802

Track SL-14 DEB in real time with AllMySat

Download on the App Store